| time (UTC) | temp C | wind direction | speed KPH | gust KPH | rain 1hr cm | rain 24hr cm | rain mn cm | humidity % | barometer mb |
| 20260905230554 | 33 | 339 | 6.4 | 16.1 | 0.00 | 0.00 | 0.00 | 29 | 1018.6 |
| 20260905230129 | 33 | 319 | 8.0 | 17.7 | 0.00 | 0.00 | 0.00 | 29 | 1018.5 |
| 20260905225559 | 33 | 299 | 8.0 | 19.3 | 0.00 | 0.05 | 0.00 | 29 | 1018.6 |
| 20260905225056 | 33 | 302 | 9.7 | 19.3 | 0.00 | 0.05 | 0.00 | 29 | 1018.6 |
| 20260905224604 | 33 | 295 | 3.2 | 16.1 | 0.00 | 0.05 | 0.00 | 31 | 1018.6 |
| 20260905224056 | 32 | 302 | 8.0 | 22.5 | 0.00 | 0.05 | 0.00 | 30 | 1018.7 |
| 20260905223555 | 32 | 301 | 12.9 | 25.7 | 0.00 | 0.05 | 0.00 | 30 | 1018.7 |
| 20260905223104 | 33 | 331 | 11.3 | 25.7 | 0.00 | 0.05 | 0.00 | 30 | 1018.7 |
| 20260905222554 | 33 | 312 | 9.7 | 22.5 | 0.00 | 0.05 | 0.00 | 30 | 1018.8 |
| 20260905222055 | 33 | 307 | 9.7 | 19.3 | 0.00 | 0.05 | 0.00 | 30 | 1018.8 |
| 20260905221603 | 33 | 5 | 8.0 | 17.7 | 0.00 | 0.05 | 0.00 | 30 | 1018.8 |
| 20260905221057 | 33 | 359 | 8.0 | 22.5 | 0.00 | 0.05 | 0.00 | 31 | 1018.8 |
| 20260905220554 | 33 | 359 | 8.0 | 22.5 | 0.00 | 0.05 | 0.00 | 31 | 1018.8 |
| 20260905220110 | 33 | 306 | 6.4 | 19.3 | 0.00 | 0.05 | 0.00 | 31 | 1019.0 |
| 20260905215554 | 32 | 347 | 8.0 | 20.9 | 0.00 | 0.05 | 0.00 | 31 | 1019.1 |
| 20260905215059 | 32 | 359 | 11.3 | 20.9 | 0.00 | 0.05 | 0.00 | 34 | 1019.1 |
| 20260905214604 | 33 | 351 | 8.0 | 19.3 | 0.00 | 0.05 | 0.00 | 31 | 1019.2 |
| 20260905214056 | 32 | 269 | 6.4 | 16.1 | 0.00 | 0.05 | 0.00 | 33 | 1019.3 |
| 20260905213555 | 32 | 331 | 8.0 | 16.1 | 0.00 | 0.05 | 0.00 | 34 | 1019.2 |
| 20260905213103 | 32 | 352 | 9.7 | 24.1 | 0.00 | 0.05 | 0.00 | 35 | 1019.4 |
| 20260905212552 | 32 | 1 | 8.0 | 24.1 | 0.00 | 0.05 | 0.00 | 33 | 1019.4 |
| 20260905212054 | 32 | 359 | 9.7 | 16.1 | 0.00 | 0.05 | 0.00 | 34 | 1019.6 |
| 20260905211605 | 32 | 15 | 4.8 | 16.1 | 0.00 | 0.05 | 0.00 | 33 | 1019.6 |
| 20260905211053 | 32 | 354 | 9.7 | 19.3 | 0.00 | 0.05 | 0.00 | 33 | 1019.7 |
| 20260905210554 | 32 | 327 | 8.0 | 19.3 | 0.00 | 0.05 | 0.00 | 34 | 1019.8 |
| 20260905205555 | 32 | 354 | 6.4 | 14.5 | 0.00 | 0.05 | 0.00 | 34 | 1019.9 |
| 20260905205054 | 32 | 248 | 3.2 | 14.5 | 0.00 | 0.05 | 0.00 | 32 | 1019.9 |
| 20260905204558 | 32 | 348 | 6.4 | 12.9 | 0.00 | 0.05 | 0.00 | 33 | 1020.2 |
| 20260905204053 | 32 | 26 | 1.6 | 19.3 | 0.00 | 0.05 | 0.00 | 33 | 1020.1 |
| 20260905203552 | 32 | 295 | 9.7 | 19.3 | 0.00 | 0.05 | 0.00 | 34 | 1020.2 |
| 20260905203104 | 32 | 349 | 8.0 | 19.3 | 0.00 | 0.05 | 0.00 | 34 | 1020.2 |
| 20260905202554 | 32 | 15 | 3.2 | 19.3 | 0.00 | 0.05 | 0.00 | 34 | 1020.3 |
| 20260905202054 | 32 | 309 | 6.4 | 19.3 | 0.00 | 0.05 | 0.00 | 33 | 1020.5 |
| 20260905201609 | 32 | 1 | 8.0 | 17.7 | 0.00 | 0.05 | 0.00 | 33 | 1020.5 |
| 20260905201053 | 32 | 357 | 8.0 | 17.7 | 0.00 | 0.05 | 0.00 | 33 | 1020.5 |
| 20260905200553 | 31 | 321 | 1.6 | 24.1 | 0.00 | 0.05 | 0.00 | 34 | 1020.6 |
| 20260905200109 | 32 | 278 | 6.4 | 24.1 | 0.00 | 0.05 | 0.00 | 34 | 1020.6 |
| 20260905195553 | 31 | 298 | 6.4 | 24.1 | 0.00 | 0.05 | 0.00 | 34 | 1020.6 |
| 20260905195056 | 31 | 359 | 12.9 | 20.9 | 0.00 | 0.05 | 0.00 | 34 | 1020.6 |
| 20260905194600 | 31 | 335 | 6.4 | 16.1 | 0.00 | 0.05 | 0.00 | 34 | 1020.7 |
| 20260905194056 | 31 | 340 | 6.4 | 12.9 | 0.00 | 0.05 | 0.00 | 34 | 1020.8 |
| 20260905193557 | 31 | 360 | 6.4 | 11.3 | 0.00 | 0.05 | 0.00 | 35 | 1020.9 |
| 20260905193113 | 31 | 1 | 3.2 | 9.7 | 0.00 | 0.05 | 0.00 | 34 | 1021.0 |
| 20260905192554 | 31 | 49 | 4.8 | 9.7 | 0.00 | 0.05 | 0.00 | 34 | 1021.0 |
| 20260905192053 | 31 | 32 | 3.2 | 8.0 | 0.00 | 0.05 | 0.00 | 34 | 1021.1 |
| 20260905191600 | 31 | 53 | 3.2 | 14.5 | 0.00 | 0.05 | 0.00 | 34 | 1021.2 |
| 20260905191053 | 31 | 37 | 3.2 | 14.5 | 0.00 | 0.05 | 0.00 | 35 | 1021.3 |
| 20260905190553 | 31 | 55 | 6.4 | 14.5 | 0.00 | 0.05 | 0.00 | 35 | 1021.4 |
| 20260905190059 | 31 | 1 | 4.8 | 14.5 | 0.00 | 0.05 | 0.00 | 36 | 1021.4 |
| 20260905185553 | 31 | 319 | 4.8 | 14.5 | 0.00 | 0.05 | 0.00 | 35 | 1021.6 |
| 20260905185053 | 31 | 0 | 8.0 | 14.5 | 0.00 | 0.05 | 0.00 | 36 | 1021.7 |
| 20260905184604 | 30 | 252 | 6.4 | 14.5 | 0.00 | 0.05 | 0.00 | 36 | 1021.8 |
| 20260905184054 | 30 | 359 | 8.0 | 12.9 | 0.00 | 0.05 | 0.00 | 37 | 1021.8 |
| 20260905183554 | 30 | 17 | 4.8 | 12.9 | 0.00 | 0.05 | 0.00 | 37 | 1021.9 |
| 20260905183103 | 30 | 300 | 3.2 | 8.0 | 0.00 | 0.05 | 0.00 | 37 | 1022.0 |
| 20260905182555 | 30 | 0 | 3.2 | 8.0 | 0.00 | 0.05 | 0.00 | 37 | 1022.1 |
| 20260905182054 | 30 | 104 | 3.2 | 11.3 | 0.00 | 0.05 | 0.00 | 37 | 1022.0 |
| 20260905181607 | 30 | 0 | 4.8 | 11.3 | 0.00 | 0.05 | 0.00 | 36 | 1022.1 |
| 20260905181057 | 30 | 105 | 1.6 | 16.1 | 0.00 | 0.05 | 0.00 | 37 | 1022.2 |
| 20260905180554 | 30 | 0 | 6.4 | 16.1 | 0.00 | 0.05 | 0.00 | 37 | 1022.3 |
| 20260905175556 | 29 | 346 | 1.6 | 8.0 | 0.00 | 0.05 | 0.00 | 40 | 1022.2 |
| 20260905175053 | 29 | 338 | 1.6 | 11.3 | 0.00 | 0.05 | 0.00 | 38 | 1022.3 |
| 20260905174613 | 29 | 338 | 4.8 | 11.3 | 0.00 | 0.05 | 0.00 | 39 | 1022.3 |
| 20260905174054 | 29 | 350 | 1.6 | 11.3 | 0.00 | 0.05 | 0.00 | 40 | 1022.3 |
| 20260905173552 | 29 | 320 | 3.2 | 11.3 | 0.00 | 0.05 | 0.00 | 40 | 1022.4 |
| 20260905173104 | 28 | 359 | 4.8 | 11.3 | 0.00 | 0.05 | 0.00 | 41 | 1022.4 |
| 20260905172556 | 28 | 360 | 6.4 | 11.3 | 0.00 | 0.05 | 0.00 | 41 | 1022.5 |
| 20260905172056 | 29 | 207 | 4.8 | 8.0 | 0.00 | 0.05 | 0.00 | 40 | 1022.5 |
| 20260905171607 | 28 | 139 | 3.2 | 6.4 | 0.00 | 0.05 | 0.00 | 41 | 1022.4 |
| 20260905171056 | 28 | 59 | 3.2 | 9.7 | 0.00 | 0.05 | 0.00 | 42 | 1022.5 |
| 20260905170554 | 28 | 54 | 4.8 | 9.7 | 0.00 | 0.05 | 0.00 | 41 | 1022.5 |
| 20260905165557 | 28 | 51 | 4.8 | 8.0 | 0.00 | 0.05 | 0.00 | 43 | 1022.5 |
| 20260905165054 | 28 | 39 | 3.2 | 8.0 | 0.00 | 0.05 | 0.00 | 44 | 1022.6 |
| 20260905164605 | 28 | 26 | 4.8 | 8.0 | 0.00 | 0.05 | 0.00 | 45 | 1022.6 |
| 20260905164054 | 27 | 0 | 3.2 | 8.0 | 0.00 | 0.05 | 0.00 | 46 | 1022.7 |
| 20260905163555 | 27 | 58 | 1.6 | 8.0 | 0.00 | 0.05 | 0.00 | 48 | 1022.6 |
| 20260905163102 | 27 | 60 | 3.2 | 8.0 | 0.00 | 0.05 | 0.00 | 48 | 1022.6 |
| 20260905162555 | 27 | 60 | 3.2 | 8.0 | 0.00 | 0.05 | 0.00 | 47 | 1022.6 |
| 20260905162055 | 27 | 82 | 3.2 | 8.0 | 0.00 | 0.05 | 0.00 | 49 | 1022.5 |
| 20260905161559 | 27 | 139 | 1.6 | 6.4 | 0.00 | 0.05 | 0.00 | 49 | 1022.5 |
| 20260905161054 | 27 | 35 | 1.6 | 6.4 | 0.00 | 0.05 | 0.00 | 51 | 1022.5 |
| 20260905160554 | 27 | 35 | 1.6 | 6.4 | 0.00 | 0.05 | 0.00 | 52 | 1022.6 |
| 20260905160107 | 26 | 0 | 1.6 | 6.4 | 0.00 | 0.05 | 0.00 | 53 | 1022.7 |
| 20260905155554 | 26 | 49 | 3.2 | 6.4 | 0.00 | 0.05 | 0.00 | 53 | 1022.7 |
| 20260905155053 | 26 | 49 | 1.6 | 6.4 | 0.00 | 0.05 | 0.00 | 56 | 1022.6 |
| 20260905154608 | 26 | 0 | 1.6 | 4.8 | 0.00 | 0.05 | 0.00 | 56 | 1022.6 |
| 20260905154055 | 26 | 56 | 1.6 | 6.4 | 0.00 | 0.05 | 0.00 | 57 | 1022.6 |
| 20260905153555 | 25 | 0 | 3.2 | 6.4 | 0.00 | 0.05 | 0.00 | 58 | 1022.6 |
| 20260905153100 | 25 | 0 | 1.6 | 4.8 | 0.00 | 0.05 | 0.00 | 59 | 1022.6 |
| 20260905152554 | 25 | 304 | 1.6 | 4.8 | 0.00 | 0.05 | 0.00 | 61 | 1022.8 |
| 20260905152054 | 25 | 297 | 1.6 | 6.4 | 0.00 | 0.05 | 0.00 | 61 | 1022.6 |
| 20260905151601 | 24 | 297 | 1.6 | 6.4 | 0.00 | 0.05 | 0.00 | 64 | 1022.5 |
| 20260905151054 | 24 | 295 | 1.6 | 6.4 | 0.00 | 0.05 | 0.00 | 66 | 1022.4 |
| 20260905150600 | 23 | 285 | 3.2 | 6.4 | 0.00 | 0.05 | 0.00 | 69 | 1022.4 |
| 20260905150115 | 23 | 243 | 0.0 | 4.8 | 0.00 | 0.05 | 0.00 | 72 | 1022.6 |
| 20260905145554 | 23 | 238 | 0.0 | 3.2 | 0.00 | 0.05 | 0.00 | 73 | 1022.6 |
| 20260905145054 | 22 | 0 | 0.0 | 1.6 | 0.00 | 0.05 | 0.00 | 74 | 1022.5 |
| 20260905144602 | 22 | 0 | 0.0 | 3.2 | 0.00 | 0.05 | 0.00 | 75 | 1022.5 |
| 20260905144056 | 22 | 0 | 0.0 | 4.8 | 0.00 | 0.05 | 0.00 | 76 | 1022.5 |
| 20260905143552 | 22 | 0 | 1.6 | 4.8 | 0.00 | 0.05 | 0.00 | 77 | 1022.4 |
| 20260905143104 | 22 | 226 | 3.2 | 4.8 | 0.00 | 0.05 | 0.00 | 78 | 1022.4 |
| 20260905142556 | 22 | 224 | 1.6 | 4.8 | 0.00 | 0.05 | 0.00 | 80 | 1022.4 |
| 20260905142053 | 21 | 0 | 0.0 | 1.6 | 0.00 | 0.05 | 0.00 | 83 | 1022.4 |
| 20260905141603 | 21 | 0 | 0.0 | 0.0 | 0.00 | 0.05 | 0.00 | 86 | 1022.3 |
| 20260905141055 | 20 | 0 | 0.0 | 1.6 | 0.00 | 0.05 | 0.00 | 87 | 1022.3 |
| 20260905140554 | 20 | 0 | 0.0 | 3.2 | 0.00 | 0.05 | 0.00 | 87 | 1022.2 |
| 20260905140106 | 19 | 0 | 0.0 | 3.2 | 0.00 | 0.05 | 0.00 | 88 | 1022.2 |
| 20260905135558 | 18 | 0 | 0.0 | 3.2 | 0.00 | 0.05 | 0.00 | 89 | 1022.1 |
| 20260905135052 | 18 | 224 | 0.0 | 3.2 | 0.00 | 0.05 | 0.00 | 89 | 1022.1 |
| 20260905134605 | 18 | 224 | 1.6 | 3.2 | 0.00 | 0.05 | 0.00 | 89 | 1022.1 |
| 20260905134052 | 18 | 224 | 0.0 | 3.2 | 0.00 | 0.05 | 0.00 | 89 | 1022.0 |
| 20260905133556 | 18 | 0 | 0.0 | 4.8 | 0.00 | 0.05 | 0.00 | 89 | 1022.0 |
| 20260905133105 | 18 | 0 | 0.0 | 6.4 | 0.00 | 0.05 | 0.00 | 89 | 1021.8 |
| 20260905132558 | 17 | 224 | 1.6 | 6.4 | 0.00 | 0.05 | 0.00 | 88 | 1021.7 |
| 20260905132053 | 18 | 224 | 1.6 | 6.4 | 0.00 | 0.05 | 0.00 | 88 | 1021.7 |
| 20260905131607 | 18 | 223 | 3.2 | 4.8 | 0.00 | 0.05 | 0.00 | 89 | 1021.5 |
| 20260905131054 | 18 | 223 | 1.6 | 4.8 | 0.00 | 0.05 | 0.00 | 89 | 1021.5 |
| 20260905130555 | 18 | 223 | 1.6 | 3.2 | 0.00 | 0.05 | 0.00 | 89 | 1021.5 |
| 20260905130108 | 17 | 223 | 0.0 | 3.2 | 0.00 | 0.05 | 0.00 | 88 | 1021.6 |
| 20260905125552 | 18 | 223 | 0.0 | 3.2 | 0.00 | 0.05 | 0.00 | 88 | 1021.5 |
| 20260905125052 | 18 | 223 | 0.0 | 3.2 | 0.00 | 0.05 | 0.00 | 88 | 1021.5 |
| 20260905124604 | 18 | 0 | 0.0 | 4.8 | 0.00 | 0.05 | 0.00 | 88 | 1021.3 |
| 20260905124051 | 18 | 0 | 0.0 | 4.8 | 0.00 | 0.05 | 0.00 | 88 | 1021.3 |
| 20260905123555 | 18 | 0 | 1.6 | 6.4 | 0.00 | 0.05 | 0.00 | 88 | 1021.1 |
| 20260905123102 | 18 | 0 | 3.2 | 6.4 | 0.00 | 0.05 | 0.00 | 88 | 1021.1 |
| 20260905122556 | 18 | 213 | 3.2 | 6.4 | 0.00 | 0.05 | 0.00 | 88 | 1021.0 |
| 20260905122055 | 18 | 75 | 0.0 | 4.8 | 0.00 | 0.05 | 0.00 | 87 | 1021.0 |
| 20260905121604 | 18 | 75 | 0.0 | 4.8 | 0.00 | 0.05 | 0.00 | 87 | 1021.1 |
| 20260905121055 | 18 | 75 | 0.0 | 0.0 | 0.00 | 0.05 | 0.00 | 87 | 1021.0 |
| 20260905120554 | 18 | 0 | 0.0 | 0.0 | 0.00 | 0.05 | 0.00 | 87 | 1021.0 |
| 20260905120105 | 18 | 0 | 0.0 | 0.0 | 0.00 | 0.05 | 0.00 | 87 | 1021.0 |
| 20260905115554 | 18 | 0 | 0.0 | 0.0 | 0.00 | 0.05 | 0.00 | 87 | 1021.0 |
| 20260905115056 | 18 | 0 | 0.0 | 0.0 | 0.00 | 0.05 | 0.00 | 86 | 1020.9 |
| 20260905114605 | 19 | 0 | 0.0 | 0.0 | 0.00 | 0.05 | 0.00 | 86 | 1020.9 |
| 20260905114054 | 19 | 0 | 0.0 | 0.0 | 0.00 | 0.05 | 0.00 | 86 | 1020.9 |
| 20260905113554 | 19 | 0 | 0.0 | 0.0 | 0.00 | 0.05 | 0.00 | 85 | 1021.0 |
| 20260905113117 | 19 | 0 | 0.0 | 0.0 | 0.00 | 0.05 | 0.00 | 85 | 1020.9 |
| 20260905112554 | 19 | 0 | 0.0 | 0.0 | 0.00 | 0.05 | 0.00 | 85 | 1021.0 |
| 20260905112055 | 19 | 0 | 0.0 | 0.0 | 0.00 | 0.05 | 0.00 | 85 | 1020.9 |
| 20260905111602 | 20 | 0 | 0.0 | 0.0 | 0.00 | 0.05 | 0.00 | 84 | 1021.0 |
| 20260905111055 | 20 | 0 | 0.0 | 0.0 | 0.00 | 0.05 | 0.00 | 84 | 1021.0 |
| 20260905110555 | 20 | 0 | 0.0 | 0.0 | 0.00 | 0.05 | 0.00 | 84 | 1021.0 |
| 20260905110101 | 20 | 0 | 0.0 | 0.0 | 0.00 | 0.05 | 0.00 | 84 | 1021.0 |
| 20260905105554 | 20 | 0 | 0.0 | 0.0 | 0.00 | 0.05 | 0.00 | 84 | 1021.0 |
| 20260905105056 | 20 | 0 | 0.0 | 0.0 | 0.00 | 0.05 | 0.00 | 83 | 1020.9 |
| 20260905104605 | 20 | 0 | 0.0 | 0.0 | 0.00 | 0.05 | 0.00 | 83 | 1020.8 |
| 20260905104054 | 20 | 0 | 0.0 | 0.0 | 0.00 | 0.05 | 0.00 | 83 | 1020.9 |
| 20260905103554 | 20 | 0 | 0.0 | 0.0 | 0.00 | 0.05 | 0.00 | 82 | 1021.0 |
| 20260905103103 | 20 | 0 | 0.0 | 0.0 | 0.00 | 0.05 | 0.00 | 82 | 1020.9 |
| 20260905102555 | 20 | 0 | 0.0 | 0.0 | 0.00 | 0.05 | 0.00 | 83 | 1020.8 |
| 20260905102054 | 20 | 0 | 0.0 | 0.0 | 0.00 | 0.05 | 0.00 | 83 | 1020.8 |
| 20260905101600 | 20 | 0 | 0.0 | 0.0 | 0.00 | 0.05 | 0.00 | 83 | 1020.9 |
| 20260905101055 | 20 | 0 | 0.0 | 0.0 | 0.00 | 0.05 | 0.00 | 83 | 1020.8 |
| 20260905100555 | 20 | 0 | 0.0 | 0.0 | 0.00 | 0.05 | 0.00 | 83 | 1020.8 |
| 20260905100105 | 20 | 0 | 0.0 | 0.0 | 0.00 | 0.05 | 0.00 | 83 | 1020.7 |
| 20260905095554 | 20 | 0 | 0.0 | 0.0 | 0.00 | 0.05 | 0.00 | 83 | 1020.7 |
| 20260905095055 | 20 | 0 | 0.0 | 0.0 | 0.00 | 0.05 | 0.00 | 83 | 1020.7 |
| 20260905094602 | 20 | 0 | 0.0 | 0.0 | 0.00 | 0.05 | 0.00 | 83 | 1020.6 |
| 20260905094054 | 20 | 0 | 0.0 | 0.0 | 0.00 | 0.05 | 0.00 | 83 | 1020.7 |
| 20260905093555 | 20 | 0 | 0.0 | 0.0 | 0.00 | 0.05 | 0.00 | 83 | 1020.7 |
| 20260905093107 | 20 | 0 | 0.0 | 0.0 | 0.00 | 0.05 | 0.00 | 84 | 1020.7 |
| 20260905092557 | 21 | 0 | 0.0 | 0.0 | 0.00 | 0.05 | 0.00 | 83 | 1020.7 |
| 20260905092054 | 21 | 0 | 0.0 | 0.0 | 0.00 | 0.05 | 0.00 | 83 | 1020.8 |
| 20260905091604 | 21 | 0 | 0.0 | 0.0 | 0.00 | 0.05 | 0.00 | 83 | 1020.8 |
| 20260905091054 | 21 | 0 | 0.0 | 0.0 | 0.00 | 0.05 | 0.00 | 83 | 1020.8 |
| 20260905090555 | 21 | 0 | 0.0 | 0.0 | 0.00 | 0.05 | 0.00 | 83 | 1020.8 |
| 20260905085555 | 21 | 0 | 0.0 | 0.0 | 0.00 | 0.05 | 0.00 | 83 | 1021.0 |
| 20260905085054 | 21 | 0 | 0.0 | 0.0 | 0.00 | 0.05 | 0.00 | 83 | 1021.0 |
| 20260905084603 | 21 | 0 | 0.0 | 0.0 | 0.00 | 0.05 | 0.00 | 83 | 1020.9 |
| 20260905084056 | 21 | 0 | 0.0 | 0.0 | 0.00 | 0.05 | 0.00 | 83 | 1020.9 |
| 20260905083555 | 21 | 0 | 0.0 | 0.0 | 0.00 | 0.05 | 0.00 | 83 | 1020.9 |
| 20260905083101 | 21 | 0 | 0.0 | 0.0 | 0.00 | 0.05 | 0.00 | 83 | 1020.9 |
| 20260905082554 | 21 | 0 | 0.0 | 0.0 | 0.00 | 0.05 | 0.00 | 83 | 1021.0 |
| 20260905082054 | 21 | 0 | 0.0 | 0.0 | 0.00 | 0.05 | 0.00 | 83 | 1020.9 |
| 20260905081613 | 21 | 0 | 0.0 | 0.0 | 0.00 | 0.05 | 0.00 | 83 | 1021.0 |
| 20260905081055 | 21 | 0 | 0.0 | 0.0 | 0.00 | 0.05 | 0.00 | 83 | 1021.0 |
| 20260905080557 | 21 | 0 | 0.0 | 0.0 | 0.00 | 0.05 | 0.00 | 83 | 1021.2 |
| 20260905080101 | 21 | 0 | 0.0 | 0.0 | 0.00 | 0.05 | 0.00 | 83 | 1021.1 |
| 20260905075555 | 21 | 0 | 0.0 | 0.0 | 0.00 | 0.05 | 0.00 | 83 | 1021.0 |
| 20260905075054 | 21 | 0 | 0.0 | 0.0 | 0.00 | 0.05 | 0.00 | 83 | 1021.2 |
| 20260905074600 | 21 | 0 | 0.0 | 0.0 | 0.00 | 0.05 | 0.00 | 83 | 1021.1 |
| 20260905074054 | 21 | 0 | 0.0 | 0.0 | 0.00 | 0.05 | 0.00 | 83 | 1021.2 |
| 20260905073556 | 21 | 0 | 0.0 | 0.0 | 0.00 | 0.05 | 0.00 | 83 | 1021.3 |
| 20260905073103 | 21 | 0 | 0.0 | 0.0 | 0.00 | 0.05 | 0.00 | 82 | 1021.3 |
| 20260905072555 | 21 | 0 | 0.0 | 0.0 | 0.00 | 0.05 | 0.00 | 82 | 1021.3 |
| 20260905072054 | 21 | 0 | 0.0 | 1.6 | 0.00 | 0.05 | 0.00 | 82 | 1021.2 |
| 20260905071608 | 21 | 0 | 0.0 | 1.6 | 0.00 | 0.05 | 0.00 | 82 | 1021.3 |
| 20260905071054 | 21 | 0 | 0.0 | 1.6 | 0.00 | 0.05 | 0.00 | 82 | 1021.3 |
| 20260905070554 | 21 | 0 | 0.0 | 1.6 | 0.00 | 0.05 | 0.00 | 81 | 1021.3 |
| 20260905070105 | 21 | 0 | 0.0 | 1.6 | 0.00 | 0.05 | 0.00 | 81 | 1021.2 |
| 20260905065554 | 21 | 0 | 0.0 | 1.6 | 0.00 | 0.05 | 0.05 | 80 | 1021.3 |
| 20260905065054 | 21 | 0 | 0.0 | 1.6 | 0.00 | 0.05 | 0.05 | 80 | 1021.5 |
| 20260905064601 | 21 | 0 | 0.0 | 1.6 | 0.00 | 0.05 | 0.05 | 79 | 1021.4 |
| 20260905064054 | 21 | 0 | 0.0 | 1.6 | 0.00 | 0.05 | 0.05 | 79 | 1021.5 |
| 20260905063555 | 21 | 0 | 0.0 | 1.6 | 0.00 | 0.05 | 0.05 | 78 | 1021.4 |
| 20260905063111 | 21 | 0 | 0.0 | 1.6 | 0.00 | 0.05 | 0.05 | 78 | 1021.4 |
| 20260905062552 | 21 | 0 | 0.0 | 1.6 | 0.00 | 0.05 | 0.05 | 78 | 1021.4 |
| 20260905062055 | 21 | 0 | 0.0 | 3.2 | 0.00 | 0.05 | 0.05 | 78 | 1021.4 |
| 20260905061615 | 21 | 75 | 0.0 | 3.2 | 0.00 | 0.05 | 0.05 | 79 | 1021.5 |
| 20260905061055 | 22 | 0 | 0.0 | 1.6 | 0.00 | 0.05 | 0.05 | 79 | 1021.5 |
| 20260905060554 | 22 | 0 | 0.0 | 3.2 | 0.00 | 0.05 | 0.05 | 78 | 1021.5 |
| 20260905055554 | 22 | 75 | 0.0 | 3.2 | 0.00 | 0.05 | 0.05 | 77 | 1021.4 |
| 20260905055054 | 22 | 0 | 0.0 | 3.2 | 0.00 | 0.05 | 0.05 | 76 | 1021.4 |
| 20260905054600 | 22 | 0 | 0.0 | 3.2 | 0.00 | 0.05 | 0.05 | 76 | 1021.5 |
| 20260905054054 | 22 | 75 | 1.6 | 3.2 | 0.00 | 0.05 | 0.05 | 76 | 1021.5 |
| 20260905053554 | 22 | 0 | 0.0 | 4.8 | 0.00 | 0.05 | 0.05 | 75 | 1021.4 |
| 20260905053105 | 22 | 0 | 0.0 | 8.0 | 0.00 | 0.05 | 0.05 | 75 | 1021.4 |
| 20260905052554 | 22 | 75 | 3.2 | 8.0 | 0.00 | 0.05 | 0.05 | 74 | 1021.4 |
| 20260905052055 | 22 | 61 | 3.2 | 6.4 | 0.00 | 0.05 | 0.05 | 73 | 1021.3 |
| 20260905051605 | 23 | 60 | 4.8 | 6.4 | 0.00 | 0.05 | 0.05 | 70 | 1021.3 |
| 20260905051054 | 23 | 63 | 3.2 | 6.4 | 0.00 | 0.05 | 0.05 | 67 | 1021.3 |
| 20260905050555 | 23 | 295 | 3.2 | 6.4 | 0.00 | 0.05 | 0.05 | 65 | 1021.3 |
| 20260905045556 | 24 | 253 | 0.0 | 4.8 | 0.00 | 0.05 | 0.05 | 62 | 1021.3 |
| 20260905045054 | 24 | 0 | 0.0 | 3.2 | 0.00 | 0.05 | 0.05 | 61 | 1021.2 |
| 20260905044603 | 24 | 0 | 0.0 | 3.2 | 0.00 | 0.05 | 0.05 | 59 | 1021.1 |
| 20260905044053 | 24 | 0 | 0.0 | 4.8 | 0.00 | 0.05 | 0.05 | 59 | 1021.1 |
| 20260905043556 | 25 | 0 | 0.0 | 4.8 | 0.00 | 0.05 | 0.05 | 58 | 1021.1 |
| 20260905043100 | 25 | 253 | 1.6 | 4.8 | 0.00 | 0.05 | 0.05 | 58 | 1021.1 |
| 20260905042553 | 25 | 253 | 0.0 | 4.8 | 0.00 | 0.05 | 0.05 | 58 | 1021.2 |
| 20260905042055 | 25 | 0 | 1.6 | 4.8 | 0.00 | 0.05 | 0.05 | 57 | 1021.2 |
| 20260905041613 | 25 | 253 | 0.0 | 4.8 | 0.00 | 0.05 | 0.05 | 57 | 1021.2 |
| 20260905041053 | 25 | 253 | 0.0 | 4.8 | 0.00 | 0.05 | 0.05 | 57 | 1021.2 |
| 20260905040553 | 25 | 253 | 0.0 | 4.8 | 0.00 | 0.05 | 0.05 | 57 | 1021.2 |
| 20260905040105 | 25 | 253 | 1.6 | 4.8 | 0.00 | 0.05 | 0.05 | 56 | 1021.3 |
| 20260905035554 | 25 | 253 | 1.6 | 4.8 | 0.00 | 0.05 | 0.05 | 56 | 1021.3 |
| 20260905035053 | 24 | 253 | 3.2 | 4.8 | 0.00 | 0.05 | 0.05 | 56 | 1021.1 |
| 20260905034605 | 24 | 253 | 1.6 | 4.8 | 0.00 | 0.05 | 0.05 | 58 | 1021.1 |
| 20260905034055 | 24 | 255 | 1.6 | 4.8 | 0.00 | 0.05 | 0.05 | 59 | 1021.1 |
| 20260905033552 | 24 | 255 | 1.6 | 4.8 | 0.00 | 0.05 | 0.05 | 60 | 1021.1 |
| 20260905033122 | 24 | 255 | 0.0 | 4.8 | 0.00 | 0.05 | 0.05 | 60 | 1021.0 |
| 20260905032556 | 24 | 255 | 1.6 | 4.8 | 0.00 | 0.05 | 0.05 | 60 | 1021.0 |
| 20260905032055 | 24 | 255 | 1.6 | 4.8 | 0.00 | 0.05 | 0.05 | 60 | 1020.9 |
| 20260905031611 | 24 | 255 | 1.6 | 4.8 | 0.00 | 0.05 | 0.05 | 61 | 1020.7 |
| 20260905031054 | 24 | 255 | 1.6 | 4.8 | 0.00 | 0.05 | 0.05 | 61 | 1020.6 |
| 20260905030554 | 25 | 255 | 3.2 | 4.8 | 0.00 | 0.05 | 0.05 | 60 | 1020.6 |
| 20260905030109 | 25 | 255 | 1.6 | 6.4 | 0.00 | 0.05 | 0.05 | 60 | 1020.4 |
| 20260905025554 | 25 | 0 | 1.6 | 6.4 | 0.00 | 0.05 | 0.05 | 59 | 1020.4 |
| 20260905025054 | 25 | 257 | 3.2 | 4.8 | 0.00 | 0.05 | 0.05 | 59 | 1020.3 |
| 20260905024602 | 25 | 243 | 1.6 | 4.8 | 0.00 | 0.05 | 0.05 | 58 | 1020.3 |
| 20260905024054 | 25 | 243 | 1.6 | 4.8 | 0.00 | 0.05 | 0.05 | 58 | 1020.2 |
| 20260905023557 | 25 | 243 | 1.6 | 6.4 | 0.00 | 0.05 | 0.05 | 58 | 1020.1 |
| 20260905023105 | 25 | 243 | 1.6 | 6.4 | 0.00 | 0.05 | 0.05 | 59 | 1020.1 |
| 20260905022557 | 25 | 243 | 3.2 | 6.4 | 0.00 | 0.05 | 0.05 | 59 | 1020.1 |
| 20260905022054 | 25 | 244 | 3.2 | 6.4 | 0.00 | 0.05 | 0.05 | 59 | 1020.0 |
| 20260905021600 | 25 | 220 | 3.2 | 8.0 | 0.00 | 0.05 | 0.05 | 59 | 1020.0 |
| 20260905021056 | 25 | 219 | 3.2 | 8.0 | 0.00 | 0.05 | 0.05 | 59 | 1019.9 |
| 20260905020557 | 25 | 229 | 3.2 | 9.7 | 0.00 | 0.05 | 0.05 | 58 | 1019.9 |
| 20260905020112 | 25 | 229 | 3.2 | 9.7 | 0.00 | 0.05 | 0.05 | 58 | 1019.9 |
| 20260905015555 | 26 | 224 | 3.2 | 9.7 | 0.00 | 0.05 | 0.05 | 57 | 1020.0 |
| 20260905015055 | 26 | 253 | 1.6 | 4.8 | 0.00 | 0.05 | 0.05 | 54 | 1020.0 |
| 20260905014605 | 26 | 0 | 0.0 | 3.2 | 0.00 | 0.05 | 0.05 | 55 | 1019.9 |
| 20260905014054 | 26 | 0 | 0.0 | 0.0 | 0.00 | 0.05 | 0.05 | 54 | 1020.0 |
| 20260905013554 | 26 | 0 | 0.0 | 0.0 | 0.00 | 0.05 | 0.05 | 53 | 1019.9 |
| 20260905013112 | 26 | 0 | 0.0 | 0.0 | 0.00 | 0.05 | 0.05 | 53 | 1020.0 |
| 20260905012554 | 26 | 0 | 0.0 | 0.0 | 0.00 | 0.05 | 0.05 | 52 | 1020.1 |
| 20260905012053 | 26 | 0 | 0.0 | 0.0 | 0.00 | 0.05 | 0.05 | 52 | 1020.0 |
| 20260905011632 | 26 | 0 | 0.0 | 3.2 | 0.00 | 0.05 | 0.05 | 51 | 1020.0 |
| 20260905011055 | 26 | 0 | 0.0 | 3.2 | 0.00 | 0.05 | 0.05 | 52 | 1019.9 |
| 20260905010553 | 27 | 0 | 0.0 | 3.2 | 0.00 | 0.05 | 0.05 | 52 | 1019.9 |
| 20260905010105 | 27 | 0 | 0.0 | 3.2 | 0.00 | 0.05 | 0.05 | 52 | 1019.8 |
| 20260905005551 | 27 | 0 | 1.6 | 4.8 | 0.00 | 0.05 | 0.05 | 51 | 1019.8 |
| 20260905005053 | 27 | 283 | 0.0 | 4.8 | 0.00 | 0.05 | 0.05 | 50 | 1019.7 |
| 20260905004601 | 27 | 283 | 0.0 | 4.8 | 0.00 | 0.05 | 0.05 | 51 | 1019.8 |
| 20260905004054 | 27 | 0 | 0.0 | 6.4 | 0.00 | 0.05 | 0.05 | 51 | 1019.8 |
| 20260905003556 | 27 | 283 | 0.0 | 6.4 | 0.00 | 0.05 | 0.05 | 51 | 1019.8 |
| 20260905003101 | 27 | 283 | 0.0 | 4.8 | 0.00 | 0.05 | 0.05 | 50 | 1019.8 |
| 20260905002553 | 27 | 0 | 0.0 | 4.8 | 0.00 | 0.05 | 0.05 | 51 | 1019.8 |
| 20260905002054 | 27 | 282 | 0.0 | 8.0 | 0.00 | 0.05 | 0.05 | 51 | 1019.7 |
| 20260905001605 | 28 | 283 | 1.6 | 9.7 | 0.00 | 0.05 | 0.05 | 52 | 1019.6 |
| 20260905001057 | 28 | 286 | 1.6 | 14.5 | 0.00 | 0.05 | 0.05 | 52 | 1019.5 |
| 20260905000554 | 28 | 286 | 4.8 | 14.5 | 0.00 | 0.05 | 0.05 | 52 | 1019.5 |
| 20260904235556 | 28 | 259 | 4.8 | 12.9 | 0.00 | 0.05 | 0.05 | 51 | 1019.3 |
| 20260904235059 | 28 | 285 | 3.2 | 12.9 | 0.03 | 0.05 | 0.05 | 52 | 1019.2 |
| 20260904234601 | 28 | 286 | 3.2 | 12.9 | 0.05 | 0.05 | 0.05 | 49 | 1019.1 |
| 20260904234057 | 28 | 300 | 1.6 | 12.9 | 0.05 | 0.05 | 0.05 | 49 | 1019.1 |
| 20260904233557 | 28 | 266 | 1.6 | 16.1 | 0.05 | 0.05 | 0.05 | 52 | 1019.1 |
| 20260904233100 | 28 | 288 | 4.8 | 16.1 | 0.05 | 0.05 | 0.05 | 51 | 1019.2 |
| 20260904232553 | 28 | 271 | 6.4 | 16.1 | 0.05 | 0.05 | 0.05 | 50 | 1019.2 |
| 20260904232053 | 28 | 317 | 6.4 | 12.9 | 0.05 | 0.05 | 0.05 | 52 | 1019.2 |
| 20260904231606 | 27 | 308 | 3.2 | 8.0 | 0.05 | 0.05 | 0.05 | 55 | 1019.2 |
| 20260904231055 | 27 | 300 | 1.6 | 6.4 | 0.05 | 0.05 | 0.05 | 56 | 1019.2 |